Theta_e
314 316 318 318 321 316 317 318 315 316 316 314 319 326 329 326 328 320 330 332 333 333 334 336 330 325 331 331 331 331 333 336 337 337 337 335 334 332 331 330 329 330 330 331 329 328 329 328 328
315 317 319 312 320 317 316 312 317 315 317 321 319 323 326 330 331 328 331 331 333 333 334 337 326 327 330 330 330 331 334 335 337 337 336 334 332 331 329 330 329 329 330 331 329 328 327 327 326
316 317 316 314 313 319 316 311 315 314 321 315 323 322 326 332 329 330 330 331 334 333 334 335 330 330 330 330 330 332 331 334 336 336 335 333 331 330 329 330 328 328 329 330 329 328 327 326 326
317 315 310 315 315 312 313 312 313 317 315 314 321 326 326 329 329 330 330 331 333 333 334 335 330 324 325 323 323 324 330 333 335 334 333 332 329 329 328 329 328 326 327 328 327 327 327 325 326
314 311 316 314 315 312 310 312 312 315 314 318 317 324 332 330 330 329 330 332 332 333 334 335 333 323 322 323 324 329 326 330 333 333 332 330 329 328 328 329 327 326 327 327 328 327 326 325 325
314 310 316 317 314 313 314 311 312 313 313 316 322 329 333 330 330 331 330 331 332 332 334 335 334 327 323 325 326 326 328 327 331 331 330 329 328 328 327 328 327 325 327 329 327 325 325 325 324
314 313 315 313 314 316 316 310 312 312 313 315 321 327 325 330 332 330 330 331 332 333 334 334 335 331 324 325 325 326 326 326 329 331 329 327 326 326 326 326 326 326 326 329 326 325 324 324 323
310 313 314 312 314 315 311 312 310 313 314 315 319 321 330 330 333 331 329 329 332 332 332 333 334 333 328 327 326 326 325 325 326 328 326 323 322 323 323 323 325 325 326 325 326 323 323 325 323
307 313 314 314 312 314 309 313 309 309 312 313 317 317 320 333 332 331 330 330 331 332 332 332 333 334 331 327 326 326 325 325 324 325 324 320 319 319 320 322 324 323 325 325 324 323 323 324 323
310 312 314 309 309 311 309 312 310 313 313 313 313 315 322 332 331 331 331 331 332 333 333 332 333 334 333 330 328 327 325 324 323 323 322 319 317 318 318 319 323 322 324 325 322 322 322 322 322
308 312 310 310 310 309 310 311 309 311 313 312 313 314 326 330 331 331 331 331 331 332 334 333 333 333 333 332 330 328 326 325 324 323 322 320 317 317 317 317 319 320 321 320 319 320 320 319 319
312 309 309 312 310 310 311 308 310 309 312 308 308 314 326 330 331 331 331 332 332 332 335 333 332 333 334 333 332 330 329 327 325 323 322 320 318 317 317 316 315 314 315 315 317 317 317 317 316
311 310 311 309 308 309 309 311 311 309 307 306 308 319 327 330 331 331 332 332 333 334 337 335 333 332 333 336 333 331 330 329 327 325 323 321 319 318 317 317 315 313 313 313 314 315 315 316 318
308 309 310 309 310 309 311 309 311 309 305 306 310 315 322 328 329 330 331 333 334 335 335 335 335 333 333 335 336 334 331 330 329 327 325 323 321 319 318 318 317 315 313 314 314 314 314 316 317
306 309 309 309 310 310 309 308 309 307 305 308 307 310 315 322 327 330 332 332 334 334 334 334 335 334 333 334 336 333 333 332 329 329 328 326 323 321 320 319 319 318 316 314 315 315 315 316 316
306 305 309 306 309 309 306 307 304 305 306 306 305 305 304 312 322 328 330 332 333 333 333 333 334 334 333 333 335 335 333 333 331 331 329 328 326 324 322 322 323 321 318 315 314 315 315 315 315
305 307 306 305 308 310 307 306 307 307 306 307 305 304 303 303 305 317 326 329 330 332 333 333 333 333 333 333 332 332 333 333 332 331 332 330 329 327 325 325 325 324 322 318 316 314 314 314 314
307 305 306 305 308 309 309 308 306 306 306 306 305 304 303 303 304 307 312 321 326 329 331 332 333 333 333 332 332 332 332 333 333 332 332 329 329 327 326 326 326 325 323 321 319 316 314 313 314
303 304 306 307 309 310 309 307 307 306 306 306 306 304 303 303 304 306 307 307 312 321 326 329 330 331 332 332 331 331 330 332 332 331 333 332 329 328 326 326 327 326 325 326 324 319 316 313 313
305 307 309 309 309 309 308 308 307 305 306 306 305 304 303 302 301 302 303 305 306 309 318 324 327 328 330 331 331 330 330 330 331 331 333 332 331 330 329 328 327 326 325 325 325 323 317 314 313
307 306 307 309 307 305 303 304 303 303 303 302 302 301 301 300 301 302 303 303 304 305 308 314 321 325 327 329 330 331 330 330 329 329 329 333 331 331 331 330 329 329 328 326 327 325 320 315 316
309 306 306 308 307 306 304 305 304 304 303 304 304 304 303 302 302 302 303 306 306 305 306 307 312 319 324 327 329 329 330 329 329 329 329 329 330 330 331 332 331 329 328 327 325 326 324 318 312
307 306 307 306 307 308 308 306 305 302 306 308 304 303 303 302 302 303 303 306 307 309 306 305 306 312 318 323 327 329 329 330 330 330 329 329 329 329 330 330 330 330 329 329 326 324 324 321 317
305 305 304 305 304 306 306 304 304 303 305 306 304 304 305 303 303 303 305 307 308 310 312 311 309 311 316 320 323 326 327 328 329 329 328 328 328 328 328 328 327 327 327 327 326 326 326 324 320
305 305 307 308 308 306 303 305 305 304 304 304 305 306 304 303 304 303 303 304 306 308 310 314 317 319 321 323 324 326 326 326 327 327 327 326 326 326 326 326 325 325 325 325 324 323 323 322 320
305 305 307 306 306 305 306 307 306 304 303 303 306 304 304 304 303 302 303 304 305 307 307 308 309 310 314 318 320 322 323 323 323 323 323 322 321 320 319 319 320 320 320 320 321 320 319 319 318
308 306 303 305 292 304 305 304 303 306 307 306 306 305 304 303 302 301 302 303 304 304 305 306 307 307 307 307 308 308 309 309 309 310 310 311 311 311 311 311 312 312 312 313 314 315 316 316 316
306 304 308 304 303 304 301 303 304 309 309 307 306 305 304 303 303 302 302 303 304 305 306 307 307 306 306 307 307 307 307 307 307 307 307 307 307 307 308 308 308 308 309 309 310 311 312 312 313
308 307 305 305 305 306 303 303 299 306 307 307 305 305 304 303 302 302 302 303 304 305 305 305 305 306 306 306 306 306 306 306 306 306 306 306 306 306 306 306 306 306 306 307 307 308 309 309 310
307 307 306 307 306 302 304 304 304 305 304 304 304 304 302 301 301 301 302 303 303 303 304 304 304 304 304 304 305 305 305 305 305 305 305 305 305 306 305 306 305 305 305 305 305 306 306 307 306
Wind_Speed
6 7 5 6 4 4 2 2 0 3 2 1 4 4 4 2 3 1 5 11 22 24 22 19 13 14 13 13 12 13 15 15 16 17 16 16 16 16 17 18 18 16 15 17 18 18 19 19 21
5 5 6 2 4 3 2 2 4 4 2 6 4 2 2 2 1 5 13 18 26 24 21 20 16 16 14 13 12 13 14 14 14 15 16 16 15 15 16 17 17 16 16 16 15 16 17 17 18
3 6 3 4 3 3 3 4 4 2 6 1 3 3 3 4 1 15 7 26 27 23 20 18 15 15 14 13 13 14 15 14 15 15 14 15 14 14 15 16 16 14 15 14 15 15 17 18 18
4 6 4 3 2 2 3 2 4 5 2 1 2 4 1 2 8 9 19 29 27 23 20 18 15 14 13 12 14 15 16 16 14 13 12 14 13 14 15 15 14 13 14 13 14 15 16 20 17
6 3 3 2 0 1 2 2 6 5 3 1 1 3 2 2 6 13 26 30 28 24 20 18 15 13 14 13 14 15 15 16 13 11 11 11 12 13 13 14 13 12 13 13 14 16 17 16 15
3 3 3 2 1 2 1 5 6 3 3 1 3 3 2 2 10 20 30 31 27 24 21 19 16 14 14 13 13 14 14 16 14 11 9 11 11 12 12 13 12 12 12 12 13 15 14 12 13
5 3 3 4 2 2 3 5 5 4 5 3 6 4 1 4 10 25 31 29 25 22 21 19 18 15 13 13 13 13 14 15 14 11 10 11 11 12 12 14 12 12 12 13 13 14 13 12 12
5 4 4 1 3 2 5 4 1 4 4 3 2 3 3 5 17 23 27 27 24 23 21 20 19 17 16 14 13 13 13 13 13 12 10 10 11 11 11 14 12 12 11 10 11 10 10 12 12
4 4 3 6 6 3 3 4 0 1 5 2 5 3 2 19 23 23 22 23 22 22 22 21 21 19 17 15 14 13 12 12 11 10 9 9 9 10 10 12 12 10 11 10 9 8 9 10 10
4 4 7 5 4 4 5 3 6 3 2 2 1 1 5 22 26 22 19 19 19 21 23 22 22 21 19 17 15 14 13 12 11 10 9 9 9 9 10 11 11 9 11 10 8 8 9 8 8
3 4 5 3 2 5 7 2 4 6 3 7 7 6 10 16 19 21 21 24 21 19 22 25 25 23 22 20 18 16 14 13 13 11 11 10 10 10 10 10 10 10 10 8 8 9 8 6 5
5 2 4 3 4 4 6 6 3 5 5 1 6 7 12 15 20 24 23 21 20 21 23 26 26 25 24 23 21 19 17 16 15 14 13 12 12 11 11 10 9 9 8 8 8 8 7 5 4
3 3 4 4 6 4 5 2 3 6 5 1 2 9 12 15 18 20 24 28 24 23 25 27 27 26 26 23 23 21 20 19 16 16 14 13 13 12 12 10 10 9 9 8 8 7 6 5 5
3 5 4 4 3 3 3 1 1 1 4 4 5 5 7 12 15 16 22 29 29 29 28 26 28 27 25 25 23 22 22 20 19 18 16 15 14 14 13 12 11 11 10 10 9 8 7 7 7
5 5 2 4 1 2 1 3 7 3 3 2 5 4 6 11 12 23 28 29 32 31 29 29 30 30 29 27 24 23 22 21 21 21 19 18 17 16 14 13 13 12 13 14 14 14 14 13 12
5 5 4 1 2 2 3 7 3 4 3 6 6 5 7 7 20 25 27 28 31 32 32 30 31 31 31 30 26 25 23 24 23 22 22 22 20 18 17 15 14 15 16 17 17 17 17 16 16
6 4 4 1 1 2 2 6 2 1 5 4 6 6 6 7 14 25 29 29 30 32 33 33 32 33 33 32 30 27 25 24 25 25 23 23 23 20 20 20 19 19 20 21 21 22 21 21 21
6 5 1 3 2 2 1 8 8 6 4 8 8 7 7 8 13 17 22 29 30 30 31 32 33 33 33 33 33 30 26 24 23 24 25 22 25 25 26 24 23 25 25 25 25 27 25 25 24
7 5 5 1 1 2 4 7 11 7 5 9 8 8 7 9 14 16 17 19 24 31 32 32 32 35 34 33 30 26 29 28 27 26 26 26 25 27 27 30 29 29 31 31 30 29 29 28 25
5 6 3 2 2 3 1 10 10 7 6 4 5 8 7 6 7 14 12 12 22 26 31 33 34 33 34 35 30 23 23 26 29 29 28 30 30 29 29 30 31 31 33 34 34 33 31 30 30
2 6 5 4 2 3 3 7 6 2 3 5 4 4 4 5 7 7 9 5 8 17 23 27 32 34 33 33 29 24 18 22 21 27 29 31 32 33 33 31 32 33 33 35 36 37 37 29 34
5 4 6 7 4 2 3 4 5 3 7 5 6 6 5 6 5 6 10 10 7 2 11 18 22 26 28 28 29 28 23 23 25 23 27 27 26 29 32 35 34 35 34 35 37 37 37 33 27
3 5 6 4 5 3 3 2 7 3 2 3 4 5 5 5 5 6 10 12 13 11 4 6 13 16 20 24 27 28 24 28 26 24 24 24 24 23 27 31 33 34 35 35 35 35 35 36 31
10 7 8 5 3 1 1 4 5 3 3 2 3 4 5 6 6 8 12 16 19 18 17 11 6 5 8 12 17 22 25 26 25 25 24 23 22 22 22 24 27 30 32 35 35 36 37 37 38
4 6 3 2 2 4 2 3 8 3 2 2 2 5 5 5 6 7 11 19 25 26 24 21 17 13 6 4 7 13 15 16 17 18 19 20 20 21 21 21 24 26 28 31 31 33 35 36 39
6 6 5 7 4 2 2 5 5 2 5 2 4 5 6 7 6 7 12 19 24 25 25 25 24 21 15 10 5 1 4 8 11 12 14 15 17 18 17 18 20 23 25 27 30 31 35 36 39
5 5 4 8 2 3 3 6 5 3 5 5 6 6 7 6 6 7 13 19 22 24 23 22 22 21 19 16 13 10 7 5 6 7 9 11 12 14 15 17 18 20 22 24 26 28 32 34 36
4 8 4 3 3 3 3 5 5 5 5 5 6 7 6 5 7 7 16 21 24 24 23 24 24 24 21 20 18 15 13 11 10 9 9 10 11 13 15 16 19 20 21 23 25 29 31 32 34
3 3 5 5 4 5 3 6 6 9 8 10 8 6 7 7 7 6 15 21 23 24 25 24 24 23 23 21 19 18 17 16 15 14 14 14 15 15 16 17 20 22 23 23 25 29 32 30 32
1 6 6 5 5 1 3 5 1 6 7 7 7 7 6 7 6 8 15 20 22 23 23 23 22 23 21 20 19 18 17 18 18 19 19 19 19 19 20 20 21 22 23 23 24 27 29 32 32
Wind_Direction
347 3 12 39 60 63 142 224 348 130 189 162 114 138 178 92 162 183 145 157 155 149 147 146 141 136 128 125 123 123 124 117 119 115 108 97 93 91 96 98 93 91 94 95 90 91 94 96 96
351 4 43 76 87 74 268 252 185 190 125 129 97 96 96 104 115 107 135 156 157 150 149 148 138 138 132 127 125 123 121 117 118 114 105 99 94 95 99 103 97 92 98 101 90 92 98 97 99
19 25 74 86 107 151 199 216 147 93 131 323 101 45 128 147 61 151 155 157 158 153 151 150 144 138 135 137 131 129 124 120 117 115 104 99 98 100 105 108 101 96 98 101 93 93 98 102 96
45 22 46 82 170 203 184 164 132 112 269 261 114 78 43 289 168 166 156 158 160 156 155 153 149 142 141 140 139 131 131 128 119 118 109 105 106 108 110 116 107 101 102 107 99 101 105 103 98
55 58 65 87 358 274 238 150 134 129 120 317 84 175 55 95 162 162 161 162 163 161 159 157 155 149 148 146 135 131 129 133 127 121 116 111 113 114 116 120 117 107 107 115 108 111 114 106 109
55 99 76 170 231 283 128 154 131 130 125 167 83 120 153 176 161 161 165 166 168 164 165 163 162 158 154 145 138 135 136 140 137 136 128 121 124 122 122 125 118 109 110 124 115 106 106 114 113
119 91 163 146 160 45 151 150 153 156 133 206 152 123 277 188 170 161 168 169 171 171 171 170 170 166 159 156 151 149 143 144 143 147 144 142 137 136 132 130 124 115 120 122 125 128 130 132 120
108 95 107 216 165 183 165 155 146 138 213 87 170 176 187 182 168 166 172 175 177 179 180 178 177 175 170 167 161 158 154 152 156 158 157 150 146 145 140 136 135 126 128 126 138 135 131 140 132
130 69 151 182 166 196 138 159 295 87 116 245 189 153 103 155 163 165 170 180 184 189 189 186 184 183 180 177 170 169 165 163 162 159 160 154 150 147 145 140 146 137 130 129 141 138 137 148 144
90 109 205 180 190 174 167 198 157 113 82 231 214 150 141 158 163 165 173 182 188 192 193 194 192 190 187 186 181 179 177 177 175 171 169 162 158 156 151 150 153 153 137 139 144 143 144 151 149
145 163 171 174 157 133 153 149 160 125 224 220 205 175 160 165 171 176 185 188 191 195 198 198 196 196 194 193 191 190 188 187 186 184 181 175 170 169 167 162 167 167 161 158 156 157 162 168 175
96 78 146 131 108 122 155 122 189 184 209 183 241 163 166 175 184 186 188 189 190 195 203 203 203 200 200 201 200 199 198 197 197 195 193 190 186 185 183 180 180 180 176 175 170 174 180 190 204
99 145 80 88 89 87 126 102 252 251 238 170 97 157 180 188 195 198 195 199 197 199 205 208 206 207 205 206 206 208 206 207 206 205 204 203 203 200 196 194 194 197 194 190 190 193 197 201 206
114 100 107 60 77 70 120 115 347 253 322 188 166 201 192 199 200 198 202 205 208 211 211 210 210 212 213 212 210 211 215 214 212 215 217 215 214 213 211 209 208 212 213 208 203 213 217 220 223
123 86 69 40 19 73 95 284 232 257 359 255 239 214 224 214 201 214 213 213 212 214 217 215 213 215 216 217 217 212 216 221 222 221 223 224 223 222 222 221 222 224 225 221 219 212 217 224 229
75 61 124 312 134 353 100 264 271 355 206 263 260 255 250 240 220 226 226 226 224 221 217 219 219 221 220 221 219 218 218 222 228 229 227 228 230 229 229 231 242 240 236 231 234 235 235 237 240
18 164 178 171 208 111 126 257 286 18 20 308 284 280 270 267 256 237 232 231 229 226 225 223 222 224 226 228 228 226 226 221 226 229 231 229 229 233 238 240 239 243 240 238 237 239 241 244 245
172 144 165 195 198 82 147 261 282 278 277 269 278 274 280 275 257 261 248 239 236 234 230 228 227 228 227 230 231 232 231 229 225 228 235 237 230 228 234 241 242 242 242 242 242 243 240 243 248
135 118 133 180 6 153 235 271 275 281 261 280 272 279 272 268 281 278 267 250 239 235 232 229 227 227 225 223 219 222 229 230 233 234 236 241 240 239 241 243 244 244 243 247 246 244 244 245 246
115 119 132 83 71 132 36 281 267 269 250 247 283 289 290 291 307 307 295 261 237 234 231 230 230 229 226 225 218 217 223 235 238 242 241 244 246 245 244 245 249 251 248 248 247 246 242 245 244
100 146 169 142 123 75 333 298 317 324 341 334 351 307 327 297 320 335 346 336 248 234 232 231 233 232 231 229 221 217 220 230 233 240 244 245 250 250 252 252 251 253 252 252 253 250 243 237 242
159 166 125 122 94 198 4 275 302 316 328 41 23 27 20 14 1 0 26 38 35 276 237 233 232 233 233 229 227 217 216 225 235 238 249 252 255 254 255 261 260 257 258 256 258 257 252 241 239
163 114 110 95 95 85 341 69 271 357 95 77 24 13 13 356 0 1 19 32 41 43 51 217 223 224 227 229 231 231 223 234 244 249 256 262 266 263 257 257 262 262 261 263 259 258 252 252 237
150 83 54 51 87 80 204 151 277 242 185 150 358 4 10 8 17 33 50 53 52 57 62 73 110 175 210 222 230 237 243 248 251 258 264 268 270 269 266 263 261 261 262 264 264 261 259 258 253
87 97 47 6 347 209 19 129 245 258 288 268 306 38 28 40 48 46 42 51 56 55 59 66 73 81 99 168 218 235 247 255 261 267 273 278 279 277 278 275 271 268 265 264 264 262 261 261 256
181 155 157 188 195 199 64 225 248 202 337 268 63 100 83 64 57 57 57 65 67 65 64 68 70 71 70 71 68 14 268 271 278 284 286 286 288 291 289 281 275 272 272 269 267 267 266 266 261
190 193 156 104 23 67 216 286 321 56 87 86 101 102 90 78 70 66 65 67 66 65 64 66 68 67 63 61 58 51 37 7 337 316 305 302 303 302 299 294 288 282 277 273 269 263 262 263 265
166 158 79 9 126 226 277 280 231 168 152 138 133 120 102 93 74 57 54 65 70 71 69 66 62 60 57 54 51 48 42 32 18 3 350 333 319 312 304 297 291 287 283 280 276 271 265 261 262
135 160 63 114 136 162 173 253 213 180 173 158 166 144 112 92 75 64 63 70 70 68 63 60 55 52 49 47 44 40 35 30 22 14 3 351 341 331 321 313 303 295 291 287 281 277 275 264 260
133 170 156 143 208 204 141 269 338 165 156 148 152 134 113 97 83 72 72 71 66 63 60 56 50 47 42 37 37 34 28 23 15 10 4 356 349 343 335 328 316 309 304 298 290 284 279 275 266